Weather History for Burbank, CA

Change the Weather History Date:

Monday, May 12, 2014

  Actual Average Record
Temperature  
Mean Temperature 24 °C 18 °C  
Max Temperature 32 °C 24 °C 39 °C (2013)
Min Temperature 16 °C 12 °C 5 °C (1942)
Degree Days  
Heating Degree Days 0 2  
Month to date heating degree days 14 29  
Since 1 July heating degree days 651 1526  
Cooling Degree Days 10 2  
Month to date cooling degree days 64 24  
Year to date cooling degree days 225 75  
Growing Degree Days 26 (Base 50)    
Moisture  
Dew Point -7 °C    
Average Humidity 15    
Maximum Humidity 23    
Minimum Humidity 6    
Precipitation  
Precipitation 0.00 mm 0.25 mm 4.57 mm (1998)
Month to date precipitation T 0.19  
Year to date precipitation 4.91 12.28  
Since 1 July precipitation 5.34 17.04  
Sea Level Pressure  
Sea Level Pressure 1014 hPa    
Wind  
Wind Speed 15 km/h (West)    
Max Wind Speed 39 km/h    
Max Gust Speed 48 km/h    
Visibility 16 kilometers    
Events      
T = Trace of Precipitation, MM = Missing Value Source: NWS Daily Summary

Daily Weather History Graph

Daily Weather History Graph

Search for Another Location

Airport:

Trip Planner

Search our weather history database for the weather conditions in past years. The results will help you decide how hot, cold, wet, or windy it might be!

Date:

Astronomy

May. 12, 2014 Rise Set
Actual Time 5:53 AM PDT 7:46 PM PDT
Civil Twilight 5:26 AM PDT 8:13 PM PDT
Nautical Twilight 4:53 AM PDT 8:47 PM PDT
Astronomical Twilight 4:17 AM PDT 9:22 PM PDT
Moon 5:54 PM PDT (5/12) 4:29 AM PDT (5/12)
Length of Visible Light 14h 47m
Length of Day
13h 52m
Waxing Gibbous, 95% of the Moon is Illuminated
May 12
Waxing Gibbous
May 14
Full
May 21
Last Quarter
May 28
New
Jun 5
First Quarter

Hourly Weather History & Observations

Time (PDT) Temp. Dew Point Humidity Pressure Visibility Wind Dir Wind Speed Gust Speed Precip Events Conditions
12:53 AM 20.0 °C -5.6 °C 17% 1013.9 hPa 16.1 km NNW 14.8 km/h / 4.1 m/s - N/A   Clear
1:53 AM 19.4 °C -5.6 °C 18% 1013.9 hPa 16.1 km NNW 16.7 km/h / 4.6 m/s - N/A   Clear
2:53 AM 19.4 °C -6.7 °C 17% 1013.9 hPa 16.1 km North 13.0 km/h / 3.6 m/s - N/A   Clear
3:53 AM 17.8 °C -5.6 °C 20% 1014.0 hPa 16.1 km West 7.4 km/h / 2.1 m/s - N/A   Clear
4:53 AM 16.7 °C -5.6 °C 21% 1013.8 hPa 16.1 km North 9.3 km/h / 2.6 m/s - N/A   Clear
5:53 AM 16.7 °C -5.6 °C 21% 1014.1 hPa 16.1 km West 11.1 km/h / 3.1 m/s - N/A   Clear
7:53 AM 22.2 °C -4.4 °C 17% 1015.3 hPa 16.1 km NNE 14.8 km/h / 4.1 m/s - N/A   Clear
8:53 AM 25.0 °C -3.9 °C 15% 1015.6 hPa 16.1 km Variable 9.3 km/h / 2.6 m/s - N/A   Clear
9:53 AM 27.2 °C -9.4 °C 8% 1015.5 hPa 16.1 km South 11.1 km/h / 3.1 m/s - N/A   Clear
10:53 AM 28.3 °C -9.4 °C 8% 1015.6 hPa 16.1 km ESE 5.6 km/h / 1.5 m/s - N/A   Clear
11:53 AM 28.9 °C -10.6 °C 7% 1015.3 hPa 16.1 km West 13.0 km/h / 3.6 m/s - N/A   Clear
12:53 PM 30.0 °C -8.9 °C 7% 1015.0 hPa 16.1 km South 20.4 km/h / 5.7 m/s 25.9 km/h / 7.2 m/s N/A   Clear
1:53 PM 30.6 °C -9.4 °C 7% 1014.3 hPa 16.1 km South 14.8 km/h / 4.1 m/s 38.9 km/h / 10.8 m/s N/A   Clear
2:53 PM 31.7 °C -8.9 °C 7% 1013.4 hPa 16.1 km South 25.9 km/h / 7.2 m/s 35.2 km/h / 9.8 m/s N/A   Clear
3:53 PM 31.1 °C -9.4 °C 7% 1012.5 hPa 16.1 km SSW 25.9 km/h / 7.2 m/s 37.0 km/h / 10.3 m/s N/A   Clear
4:23 PM 31.0 °C -9.0 °C 7% 1013.8 hPa 16.1 km SE 20.4 km/h / 5.7 m/s - N/A   Clear
4:53 PM 31.1 °C -10.0 °C 6% 1012.4 hPa 16.1 km South 20.4 km/h / 5.7 m/s - N/A   Clear
5:53 PM 30.6 °C -7.8 °C 8% 1012.4 hPa 16.1 km ESE 16.7 km/h / 4.6 m/s - N/A   Clear
6:27 PM 30.0 °C -8.0 °C 8% 1013.8 hPa 16.1 km WSW 38.9 km/h / 10.8 m/s 48.2 km/h / 13.4 m/s N/A   Clear
6:40 PM 29.0 °C -8.0 °C 8% 1013.8 hPa 16.1 km West 25.9 km/h / 7.2 m/s 37.0 km/h / 10.3 m/s N/A   Clear
6:53 PM 29.4 °C -8.3 °C 8% 1012.7 hPa 16.1 km WSW 27.8 km/h / 7.7 m/s - N/A   Clear
7:53 PM 26.7 °C -7.2 °C 10% 1013.3 hPa 16.1 km West 25.9 km/h / 7.2 m/s - N/A   Clear
8:53 PM 25.6 °C -6.1 °C 12% 1014.1 hPa 16.1 km WNW 11.1 km/h / 3.1 m/s - N/A   Clear
9:53 PM 23.9 °C -6.1 °C 13% 1014.7 hPa 16.1 km NW 9.3 km/h / 2.6 m/s - N/A   Clear
10:53 PM 21.7 °C -3.9 °C 18% 1014.9 hPa 16.1 km West 11.1 km/h / 3.1 m/s - N/A   Clear
11:53 PM 23.3 °C -9.4 °C 11% 1014.5 hPa 16.1 km NNW 16.7 km/h / 4.6 m/s - N/A   Clear